DW8947 Weather Reports


Display with metric or nautical units.
time (UTC)temp
F
wind
direction
speed
MPH
gust
MPH
rain 1hr
in
rain 24hr
in
rain mn
in
humidity
%
barometer
mb
20260906182704 65 353 1.0 2.0 0.00 0.00 0.00 68 1014.5
20260906181704 64 336 1.0 3.0 0.00 0.00 0.00 67 1014.8
20260906175704 64 215 1.0 2.0 0.00 0.00 0.00 68 1014.7
20260906175204 63 178 1.0 3.0 0.00 0.00 0.00 73 1014.6
20260906174204 63 190 0.0 2.0 0.00 0.00 0.00 71 1014.6
20260906173704 62 307 1.0 2.0 0.00 0.00 0.00 73 1014.7
20260906173204 62 275 1.0 3.0 0.00 0.00 0.00 75 1014.6
20260906172704 62 359 1.0 5.0 0.00 0.00 0.00 74 1014.7
20260906172204 61 322 1.0 2.0 0.00 0.00 0.00 76 1014.6
20260906171704 61 166 1.0 5.0 0.00 0.00 0.00 76 1014.6
20260906171203 61 296 1.0 2.0 0.00 0.00 0.00 77 1014.7
20260906165204 60 332 1.0 3.0 0.00 0.00 0.00 79 1014.6
20260906164203 60 322 1.0 2.0 0.00 0.00 0.00 79 1014.7
20260906160203 58 0 1.0 3.0 0.00 0.00 0.00 82 1014.7
20260906155704 58 351 1.0 3.0 0.00 0.00 0.00 82 1014.8
20260906154204 58 227 1.0 2.0 0.00 0.00 0.00 84 1014.7
20260906153204 57 243 1.0 2.0 0.00 0.00 0.00 85 1014.7
20260906152704 57 15 1.0 3.0 0.00 0.00 0.00 86 1014.7
20260906152204 57 240 0.0 2.0 0.00 0.00 0.00 86 1014.7
20260906151705 56 123 0.0 1.0 0.00 0.00 0.00 86 1014.6
20260906151204 56 140 0.0 2.0 0.00 0.00 0.00 87 1014.6
20260906150704 56 125 0.0 2.0 0.00 0.00 0.00 87 1014.7
20260906145204 56 180 0.0 2.0 0.00 0.00 0.00 87 1014.6
20260906144704 56 352 0.0 2.0 0.00 0.00 0.00 87 1014.5
20260906144204 56 298 1.0 2.0 0.00 0.00 0.00 87 1014.5
20260906142704 56 241 0.0 2.0 0.00 0.00 0.00 88 1014.5
20260906141704 56 295 0.0 2.0 0.00 0.00 0.00 88 1014.5
20260906135204 56 291 0.0 2.0 0.00 0.00 0.00 88 1014.4
20260906134704 56 291 0.0 2.0 0.00 0.00 0.00 88 1014.4
20260906133704 55 56 0.0 2.0 0.00 0.00 0.00 89 1014.3
20260906133204 55 56 0.0 2.0 0.00 0.00 0.00 88 1014.3
20260906132705 55 60 0.0 2.0 0.00 0.00 0.00 89 1014.3
20260906132204 55 217 1.0 2.0 0.00 0.00 0.00 89 1014.2
20260906131704 55 16 1.0 2.0 0.00 0.00 0.00 89 1014.2
20260906130704 55 65 0.0 2.0 0.00 0.00 0.00 89 1014.2
20260906125204 55 230 0.0 2.0 0.00 0.00 0.00 89 1014.3
20260906123204 55 68 0.0 2.0 0.00 0.00 0.00 89 1014.3
20260906121704 55 103 0.0 2.0 0.00 0.00 0.00 88 1014.3
20260906121204 55 126 0.0 2.0 0.00 0.00 0.00 88 1014.4
20260906120204 55 126 0.0 2.0 0.00 0.00 0.00 88 1014.5
20260906114704 55 90 0.0 2.0 0.00 0.00 0.00 89 1014.4
20260906113204 55 131 0.0 2.0 0.00 0.00 0.00 89 1014.5
20260906111204 54 131 0.0 0.0 0.00 0.00 0.00 89 1014.6
20260906110204 54 167 0.0 2.0 0.00 0.00 0.00 90 1014.7
20260906105204 54 291 0.0 2.0 0.00 0.00 0.00 90 1014.6
20260906104704 54 314 0.0 2.0 0.00 0.00 0.00 89 1014.6
20260906104204 54 314 0.0 2.0 0.00 0.00 0.00 89 1014.5
20260906103203 54 313 0.0 2.0 0.00 0.00 0.00 89 1014.5
20260906101704 55 253 0.0 2.0 0.00 0.00 0.00 89 1014.6
20260906101204 55 253 0.0 2.0 0.00 0.00 0.00 89 1014.6
20260906100704 55 10 0.0 2.0 0.00 0.00 0.00 89 1014.6
20260906100204 55 10 0.0 2.0 0.00 0.00 0.00 89 1014.5
20260906095204 55 10 0.0 2.0 0.00 0.00 0.00 89 1014.5
20260906093204 55 10 0.0 2.0 0.00 0.00 0.00 89 1014.4
20260906092704 55 7 1.0 2.0 0.00 0.00 0.00 89 1014.4
20260906092204 55 55 0.0 1.0 0.00 0.00 0.00 89 1014.3
20260906091204 55 301 0.0 2.0 0.00 0.00 0.00 88 1014.5
20260906090704 55 301 0.0 1.0 0.00 0.00 0.00 88 1014.5
20260906085704 55 301 0.0 2.0 0.00 0.00 0.00 88 1014.5
20260906084203 55 7 0.0 2.0 0.00 0.00 0.00 88 1014.6
20260906083704 55 353 0.0 2.0 0.00 0.00 0.00 88 1014.6
20260906082704 55 353 0.0 2.0 0.00 0.00 0.00 88 1014.7
20260906081204 56 352 0.0 2.0 0.00 0.00 0.00 88 1014.7
20260906080204 56 356 0.0 2.0 0.00 0.00 0.00 88 1014.7
20260906075205 56 158 0.0 2.0 0.00 0.00 0.00 88 1014.7
20260906074704 56 158 0.0 2.0 0.00 0.00 0.00 87 1014.7
20260906073704 57 158 0.0 2.0 0.00 0.00 0.00 87 1014.8
20260906072704 57 63 0.0 2.0 0.00 0.00 0.00 86 1014.7
20260906072204 57 63 0.0 2.0 0.00 0.00 0.00 85 1014.8
20260906071704 57 63 0.0 2.0 0.00 0.00 0.00 84 1014.8
20260906071204 57 25 0.0 2.0 0.00 0.00 0.00 84 1014.8
20260906070204 57 25 0.0 2.0 0.00 0.00 0.00 84 1014.7
20260906065704 57 25 0.0 2.0 0.00 0.00 0.00 83 1014.8
20260906064704 57 25 0.0 2.0 0.00 0.00 0.00 83 1014.9
20260906062204 58 50 0.0 2.0 0.00 0.00 0.00 82 1014.9
20260906061704 58 50 0.0 2.0 0.00 0.00 0.00 82 1014.9
20260906055704 58 25 0.0 2.0 0.00 0.00 0.00 81 1015.1
20260906054704 59 25 0.0 2.0 0.00 0.00 0.00 80 1015.1
20260906054204 59 25 0.0 2.0 0.00 0.00 0.00 80 1015.2
20260906052704 59 25 0.0 2.0 0.00 0.00 0.00 79 1015.1
20260906052204 60 25 0.0 2.0 0.00 0.00 0.00 79 1015.1
20260906050703 60 25 0.0 2.0 0.00 0.00 0.00 78 1015.1
20260906045704 60 25 0.0 2.0 0.00 0.00 0.00 77 1015.1
20260906044204 61 48 0.0 2.0 0.00 0.00 0.00 76 1015.2
20260906041704 62 156 0.0 2.0 0.00 0.00 0.00 74 1015.3
20260906041204 62 356 0.0 2.0 0.00 0.00 0.00 75 1015.4
20260906040204 62 354 0.0 2.0 0.00 0.00 0.00 74 1015.5
20260906035704 62 43 0.0 2.0 0.00 0.00 0.00 74 1015.5
20260906035204 62 141 0.0 2.0 0.00 0.00 0.00 74 1015.5
20260906034704 62 82 0.0 2.0 0.00 0.00 0.00 74 1015.6
20260906033704 62 19 0.0 2.0 0.00 0.00 0.00 74 1015.5
20260906033204 63 19 0.0 2.0 0.00 0.00 0.00 72 1015.4
20260906032704 63 35 0.0 2.0 0.00 0.00 0.00 72 1015.4
20260906032204 63 48 0.0 2.0 0.00 0.00 0.00 73 1015.4
20260906031203 63 48 0.0 2.0 0.00 0.00 0.00 72 1015.3
20260906030704 64 48 0.0 2.0 0.00 0.00 0.00 71 1015.3
20260906024203 64 48 0.0 0.0 0.00 0.00 0.00 66 1015.1
20260906023704 64 48 0.0 2.0 0.00 0.00 0.00 66 1015.1
20260906021204 64 48 0.0 0.0 0.00 0.00 0.00 64 1015.0
20260906020204 64 48 0.0 0.0 0.00 0.00 0.00 62 1014.9
20260906015704 65 48 0.0 0.0 0.00 0.00 0.00 61 1015.0
20260906015204 65 48 0.0 0.0 0.00 0.00 0.00 62 1015.0
20260906012704 66 48 0.0 0.0 0.00 0.00 0.00 63 1015.0
20260906012204 66 48 0.0 0.0 0.00 0.00 0.00 62 1015.0
20260906011703 66 48 0.0 0.0 0.00 0.00 0.00 62 1014.9
20260906011204 66 48 0.0 0.0 0.00 0.00 0.00 63 1014.8
20260906010204 67 48 0.0 2.0 0.00 0.00 0.00 64 1014.8
20260906005204 66 48 0.0 1.0 0.00 0.00 0.00 65 1014.9
20260906004703 66 48 0.0 2.0 0.00 0.00 0.00 63 1014.8
20260906002703 67 17 0.0 1.0 0.00 0.00 0.00 62 1014.6
20260906002203 67 17 0.0 2.0 0.00 0.00 0.00 63 1014.6
20260906001705 68 17 0.0 2.0 0.00 0.00 0.00 61 1014.6
20260905233705 67 333 0.0 2.0 0.00 0.00 0.00 59 1014.7
20260905233205 67 63 0.0 2.0 0.00 0.00 0.00 60 1014.8
20260905231705 67 333 0.0 0.0 0.00 0.00 0.00 63 1014.9
20260905230705 67 3 0.0 2.0 0.00 0.00 0.00 64 1015.0
20260905225705 67 330 0.0 2.0 0.00 0.00 0.00 60 1015.0
20260905225205 67 119 0.0 1.0 0.00 0.00 0.00 65 1015.0
20260905224205 67 153 1.0 2.0 0.00 0.00 0.00 61 1015.0
20260905223205 67 177 0.0 2.0 0.00 0.00 0.00 59 1015.1
20260905222705 67 210 0.0 2.0 0.00 0.00 0.00 58 1015.1
20260905222205 67 227 0.0 2.0 0.00 0.00 0.00 61 1015.1
20260905221705 67 209 0.0 2.0 0.00 0.00 0.00 56 1015.1
20260905221205 67 173 1.0 2.0 0.00 0.00 0.00 59 1015.2
20260905220205 67 227 0.0 1.0 0.00 0.00 0.00 57 1015.3
20260905214205 67 209 1.0 1.0 0.00 0.00 0.00 61 1015.3
20260905213205 66 202 1.0 2.0 0.00 0.00 0.00 61 1015.4
20260905212705 67 272 1.0 2.0 0.00 0.00 0.00 63 1015.5
20260905210705 66 81 0.0 2.0 0.00 0.00 0.00 67 1015.6
20260905210205 67 140 1.0 2.0 0.00 0.00 0.00 68 1015.6
20260905205205 67 153 0.0 2.0 0.00 0.00 0.00 65 1015.7
20260905204705 68 155 0.0 2.0 0.00 0.00 0.00 66 1015.6
20260905202705 69 235 1.0 2.0 0.00 0.00 0.00 61 1015.8
20260905202205 70 67 1.0 2.0 0.00 0.00 0.00 64 1015.8
20260905201705 70 12 0.0 2.0 0.00 0.00 0.00 62 1015.8
20260905195705 69 58 2.0 3.0 0.00 0.00 0.00 63 1016.0
20260905195205 69 81 1.0 3.0 0.00 0.00 0.00 65 1016.0
20260905194705 68 320 0.0 2.0 0.00 0.00 0.00 67 1016.0
20260905194205 68 196 0.0 2.0 0.00 0.00 0.00 67 1016.1
20260905192704 67 132 1.0 1.0 0.00 0.00 0.00 70 1016.2
20260905192205 67 127 0.0 2.0 0.00 0.00 0.00 71 1016.1
20260905191205 65 14 0.0 2.0 0.00 0.00 0.00 77 1016.2
20260905184705 62 54 0.0 2.0 0.00 0.00 0.00 81 1016.4